Voltar ao catálogo

OPS 8180

STP RADSAT

AtivoMilitarPO
NORAD 6217·PAYLOAD·🇺🇸 United States

Lançado Oct 2, 1972 de Vandenberg Space Force Base

Loading…

Próximas Passagens (próximas 24 horas)

TLE

AtualizadoSource: Space-Track

Época: Sep 14, 2026, 09:35 UTC

1 06217U 72076B   26257.39976764  .00000417  00000-0  76932-4 0  9994
2 06217  98.6596 246.9478 0010349 104.5685 255.6668 14.71122009851905

Acompanhe OPS 8180 em tempo real com AllMySat

Download on the App Store